THOR AGENA D R/B, 2825

Orbit data source: Space-Track

THOR AGENA D R/B, 2825 is space debris in LEO originally from a launch on Wed, 31 May 1967 UTC launched from the Air Force Western Test Range (AFWTR). Debris objects in space refer to the collection of defunct objects orbiting the Earth. Examples of debris include non-operational satellites, rocket bodies, and fragments generated from explosions, collisions, or faulty payload assembly.

Loading next visibility...
Identifier
2825, 1967-053B
Orbit
LEO
Country
Flag of USUS
Related business
Manufacturer
LMSC
Mission
Spacecraft
Bus & Motor
AGENA D, Unknown motor
Mass
600 kg wet, 600 kg dry
Launch date (UTC)
1967-05-31 (59 years ago)
Launch vehicle
Unknown
Launch site
Air Force Western Test Range (AFWTR)
Object type
Payload
Rocket body
Debris
Shape & HBR
Unknown
Radar Cross Section
Large (>1 m²)

Expand to show TLE details & history
Last TLE update: 11 hours ago

TLE from 11 hours ago
0 THOR AGENA D R/B
1 02825U 67053B   26140.95895520  .00000020  00000-0  51794-4 0  9996
2 02825  69.9693 131.9998 0008818 223.5091 136.5321 13.97724215 88297
Epoch: 2026-05-20T23:00Z
TLE epoch observation values (Epoch: 2026-05-20T23:00:53.729Z)
Latitude
0.00004°
Longitude
-91.83509°
Altitude
908.661 km
Speed
7.396 km/s
True Right ascension
08h 47m 59s
True Declination
0° 00' 00"
Sunlit
Object was in daylight at epoch
Visualization orbit readout
Latitude
Unknown
Longitude
Unknown
Altitude
Unknown
Speed
Unknown
Apparent Right ascension
Unknown
Apparent Declination
Unknown
Sunlit
N/A
Visualization observer readout
Local Sidereal Time
19:11:51
Azimuth
Unknown
Elevation
Unknown
Doppler factor
Unknown
Orbital elements
Apogee altitude
906.149 km
Perigee altitude
893.313 km
Semi-major axis
7,277.868 km
Eccentricity
0.00088
Inclination
69.9693°
RAAN
131.9998°
Arg. of periapsis
223.5091°
True anomaly
136.60156°
Mean anomaly
136.5321°
Eccentric anomaly
136.56684°
Mean motion
3.49572 °/min
Orbital period
102.98 mins
BSTAR
0.000051794
Loading maneuver chart data...
Computing Atmospheric mass density...
Loading historical data...
Loading historical data...
Loading historical data...
Loading historical data...
Loading historical data...
Loading historical data...
Loading historical data...

Documentation

Showing up to 5 results
|